星链-5402 (STARLINK-5402 )

导读

STARLINK-5402是美国SpaceX星链星座的一颗卫星,于北京时间2022年12月28日发射入轨,属于星链第一代组网卫星。星链计划旨在搭建近地轨道全球卫星互联网星座,该卫星运行于近地轨道,提供全球范围低延迟宽带互联网接入服务,是星链星座完成一期组网建设的重要组成部分,助力实现偏远地区、海洋及航空等场景的网络覆盖,目前星链系统已服务超860万用户,覆盖全球百余个国家和地区。

Basic Information
目录编号:
54869
目录名称:
STARLINK-5402
国际标识:
2022-177BB
轨道中心:
EARTH
卫星名称:
星链-5402
卫星全名:
星链-5402 (STARLINK-5402 )
卫星状态:
在轨 (已飞行1267 天)
发射日期:
2022-12-28 UTC
国别 :
美国 (US)
星等 :
--
Orbit Information
数据来源 国际轨道数据 AOE轨道数据
星历时间 2026-06-17T07:59:47+0800
10小时前
查看轨道信息
2026-06-15T07:00:00+0800
2天前
查看轨道信息
半长轴 6861.232km 6861.209km
偏心率 0.0001338 0.0002565
轨道倾角 42.997° 43.004°
近地点辐角 265.980° 271.636°
升交点赤经 281.170° 292.701°
平近点角 94.090° 8.437°
近地点 482.176km 481.312km
远地点 484.014km 484.832km
周期 94.268分钟 94.267分钟
每日圈数 15.27565 15.275725
Detailed Information
固有亮度:
5
最大亮度:
2.5
卫星平台:
Starlink v1.5
覆盖范围:
全球
运营商:
太空探索技术公司
运营商所在国:
美国
制造商(研发单位):
太空探索技术公司
制造商所在国:
美国
使用方式:
暂无
Satellite Introduction
星链(Starlink)计划是由太空探索技术公司(SpaceX)提出的一个巨型低轨卫星互联网星座项目,计划在2019年至2024年间在太空搭建由约1.2万颗卫星组成的“星链”网络,其中1584颗将部署在地球上空550千米处的近地轨道,并从2020年开始工作。该卫星仍在工作。
2D Orbit Map
3D Orbit Map
Orbit Altitude Analysis Chart
Orbit Inclination Analysis Chart
Orbit Comprehensive Analysis Chart
View Comprehensive Chart